User: anonymous   Login
Location: Unspecified
(0.0000°N, 0.0000°E)
Time: 05:43:42
(UTC+00:00)
Language:

STARLINK-2700 - Orbit

View from above orbital plane
View from above orbital plane
View from above satellite
View from above satellite

Ground track
Ground track

The orbit is defined by the following mean orbital elements,

1 48431U          26145.29297231 +.00000000 +00000-0 +38267-4 0 00006
2 48431  53.1602 156.5151 0001341  92.0541 268.0614 15.31701215    06
Epoch (UTC): 25 May 2026 07:01:52
Eccentricity: 0.0001341
inclination: 53.1602°
perigee height: 470 km
apogee height: 472 km
right ascension of ascending node: 156.5151°
argument of perigee: 92.0541°
revolutions per day: 15.31701215
mean anomaly at epoch: 268.0614°

The dashed part of the orbit path shows where the satellite is in the earth's shadow,  

DLR